529  
ASUS44 KMEG 240110  
RWRMEG  
MEMPHIS CWA HOURLY WEATHER ROUNDUP  
NATIONAL WEATHER SERVICE MEMPHIS TN  
800 PM CDT SUN APR 23 2017  
   
..WEST TENNESSEE
 
 
 
CITY SKY/WX TMP DP RH WIND PRES REMARKS
 
MEMPHIS INTL PTCLDY 56 50 80 NW5 29.92F  
NWS MEMPHIS N/A 55 N/A N/A MISG N/A  
JACKSON RAIN 55 52 89 N7 29.91S  
SOMERVILLE CLOUDY 55 52 88 N3 29.90F  
BOLIVAR MOCLDY 55 50 82 VRB7 29.90S  
LEXINGTON CLOUDY 54 52 94 N13 29.88R  
SAVANNAH CLOUDY 52 52 100 N9 29.87S  
DYERSBURG MOCLDY 56 54 93 CALM 29.93S  
UNION CITY PTCLDY 55 54 94 CALM 29.91S  
PARIS CLOUDY 52 48 87 N6 29.92S  
HUNTINGDON CLOUDY 55 50 82 N5 29.90S  
 
   
..EASTERN ARKANSAS
 
 
 
CITY SKY/WX TMP DP RH WIND PRES REMARKS
 
JONESBORO CLEAR 60 42 51 N3 29.95S  
WEST MEMPHIS CLEAR 55 54 96 CALM 29.92S  
BATESVILLE CLEAR 64 30 27 NW3 29.97R  
NEWPORT CLEAR 60 51 72 NE8 29.96R  
WALNUT RIDGE CLEAR 61 45 55 E8 29.96S  
BLYTHEVILLE PTCLDY 57 54 89 S3 29.93S  
SEARCY CLEAR 64 41 42 E5 29.98R  
STUTTGART CLEAR 63 43 48 N6 29.96R  
PINE BLUFF CLEAR 65 43 44 N3 29.95S  
MONTICELLO CLEAR 58 50 75 CALM 29.96R  
 
   
..NORTH MISSISSIPPI
 
 
 
CITY SKY/WX TMP DP RH WIND PRES REMARKS
 
TUPELO CLOUDY 51 48 89 VRB5 29.89F  
OXFORD CLOUDY 54 48 82 N3 29.94S  
OLIVE BRANCH MOCLDY N/A N/A N/A N3 29.91S  
TUNICA PTCLDY 55 50 82 CALM 29.94S  
CORINTH DRIZZLE 54 50 87 NW9 29.88S  
GREENWOOD CLOUDY 57 49 74 NW3 29.93F  
COLUMBUS CLOUDY 52 48 87 NW8 29.89S  
STARKVILLE CLOUDY 52 46 82 NW6 29.92S  
GOLDEN TRIANGL CLOUDY 54 43 66 NW12 29.85S  
 
   
..SOUTHEAST MISSOURI
 
 
 
CITY SKY/WX TMP DP RH WIND PRES REMARKS
 
KENNETT PTCLDY 63 43 48 N8 29.93S  
MALDEN CLEAR 63 41 45 NW5 29.96S  
WEST PLAINS CLEAR 62 30 29 N7 30.01S  
POPLAR BLUFF CLEAR 61 44 53 N5 29.96R  
CAPE GIRARDEAU CLEAR 59 41 51 N7 29.94R  
 
   
..NORTHWEST ALABAMA
 
 
 
CITY SKY/WX TMP DP RH WIND PRES REMARKS
 
MUSCLE SHOALS LGT RAIN 52 47 83 NW7 29.87S  
 
   
..MIDDLE TENNESSEE
 
 
 
CITY SKY/WX TMP DP RH WIND PRES REMARKS
 
NASHVILLE RAIN 53 51 93 N12 29.85S FOG  
CLARKSVILLE RAIN 53 49 86 N16 29.91R FOG  
COLUMBIA CLOUDY N/A N/A N/A N6 29.83S  
 
   
..WESTERN KENTUCKY
 
 
 
CITY SKY/WX TMP DP RH WIND PRES REMARKS
 
PADUCAH CLEAR 61 38 42 N7 29.91S  
FORT CAMPBELL RAIN 54 52 94 N16 29.91R  
 
   
..CENTRAL ARKANSAS
 
 
 
CITY SKY/WX TMP DP RH WIND PRES REMARKS
 
LITTLE ROCK CLEAR 63 39 41 N8 29.96R  
 
SKY/WX REPORTED AS FAIR MEANS FEW OR NO CLOUDS BELOW  
12 THOUSAND FEET.  
 
 
 
CLICK HERE TO GO TO PREVIOUS BULLETINS.

The Nexlab TN Page
The Nexlab MS Page
The Nexlab AR Page Main Text Page